Location: De Greiden
(52.9496°N, 5.9137°E)
Time: 22:25:37
(UTC+00:00)

Okean-O - Pass Details

Date: 24 January 2021
Orbit: 638 x 641 km, 98.2° (Epoch: 01 March)

Event Time Altitude Azimuth Distance (km) Brightness Sun altitude
Rises 18:04:55 0° 164° (SSE) 2,937 6.0 -17.5°
Reaches altitude 10° 18:07:06 10° 165° (SSE) 2,032 5.1 -17.8°
Maximum altitude 18:11:33 86° 254° (WSW) 651 2.6 -18.5°
Drops below altitude 10° 18:16:01 10° 344° (NNW) 2,048 5.3 -19.2°
Sets 18:18:14 0° 345° (NNW) 2,962 6.2 -19.5°
